Regional Weather Roundup
Issued by NWS

Home | Current Version | Previous Version | Text Only | Print | Product List | Glossary Off
Versions: 1 2 3 4 5 6 7 8 9 10 11 12 13 14 15 16 17 18 19 20 21 22 23 24 25 26 27

000
ASUS45 KTFX 152210
RWRMT
MONTANA REGIONAL WEATHER ROUNDUP
NATIONAL WEATHER SERVICE GREAT FALLS MT
300 PM MST FRI DEC 15 2017

NOTE: "FAIR" INDICATES FEW OR NO CLOUDS BELOW 12000 FEET WITH NO
SIGNIFICANT WEATHER AND/OR OBSTRUCTIONS TO VISIBILITY.

MTZ001>007-043-152300-
WEST OF THE DIVIDE

CITY           SKY/WX    TMP DP  RH WIND       PRES   REMARKS
KALISPELL      LGT SNOW  29  28  96 CALM      29.95S VSB 3/4
MISSOULA       CLOUDY    27  25  92 NW6       29.95F FOG     WCI  20
BUTTE          FAIR      28  19  69 VRB3      29.86F
MULLAN PASS    SNOW      23  22  96 VRB3      29.88F VSB 1/4
ANACONDA         N/A     45  16  31 S15G23    29.81F
DEER LODGE       N/A     19  19 100 NE5       29.87F
EUREKA           N/A     32  27  80 MISG      29.94S
HAMILTON         N/A     25  23  93 N6        29.91S WCI  18
LIBBY            N/A     30  27  86 CALM      29.97R
PLAINS           N/A     29  24  81 CALM      30.00F
RONAN            N/A     29  27  92 E6        29.99R VSB 1   WCI  23
THOMPSON FALLS   N/A     29  27  92 CALM      30.05  VSB 1
$$

MTZ008-052>055-152300-
SOUTHWEST MONTANA

CITY           SKY/WX    TMP DP  RH WIND       PRES   REMARKS
BOZEMAN        FAIR      21  17  84 CALM      29.87F
DILLON         FAIR      35  23  61 SW16      29.90F WCI  25
W YELLOWSTONE  CLOUDY    27  21  80 SW9G15    30.05F WCI  17
ENNIS          CLOUDY    34  25  69 S32G39    29.95F WCI  20
THREE FORKS      N/A     22  19  88 CALM      29.87F
TWIN BRIDGES     N/A     35  22  59 CALM      29.91F
$$

MTZ009-010-012-014-046-048-049-054-152300-
EAST SLOPES AND CENTRAL MONTANA

CITY           SKY/WX    TMP DP  RH WIND       PRES   REMARKS
CUT BANK       PTSUNNY   41  25  53 W32G38    29.71R
GREAT FALLS    FAIR      46  16  30 SW25G37   29.73S
MALMSTROM AFB  FAIR      48  16  28 SW26G38   29.72S
HELENA         PTSUNNY   28  23  81 W5        29.85F
BOWMANS CRNR   PTSUNNY   44  18  34 S18       29.73F
CHOTEAU          N/A     48  23  37 W24G31    29.74F
FAIRFIELD      FAIR      53  20  27 W21G26    29.71R
POWER          PTSUNNY   50  20  30 N6        29.71R
RAYNESFORD     PTSUNNY   51  18  27 W21G35    29.72S
ULM            PTSUNNY   49  15  26 SW30G38   29.73F
$$

MTZ011-013-016-021-045-047-050-051-152300-
NORTH CENTRAL MONTANA

CITY           SKY/WX    TMP DP  RH WIND       PRES   REMARKS
HAVRE          MOCLDY    51  24  34 W24G30    29.64S
LEWISTOWN      FAIR      46  22  38 W14       29.67F
N BAR RANCH    FAIR      54  16  22 W8G14     29.67F
CHINOOK          N/A     52  23  32 W17       29.61R
DENTON         PTSUNNY   54  19  25 W32       29.63F
GEYSER         PTSUNNY   51  17  26 W38G46    29.63F
GRASS RANGE    FAIR      52  19  27 W20G31    29.59F
STANFORD       FAIR      52  17  24 W40G47    29.64S
WINIFRED       FAIR      53  20  27 W15G23    29.63F
$$

MTZ017>020-022>027-061-062-152300-
NORTHEAST MONTANA

CITY           SKY/WX    TMP DP  RH WIND       PRES   REMARKS
GLASGOW        FAIR      41  24  51 CALM      29.59S
GLENDIVE       FAIR      46  20  35 W7        29.62S
JORDAN           N/A     50  20  30 W7        29.62F
SIDNEY         CLOUDY    46  22  38 NW13      29.57R
WOLF POINT     FAIR      44  22  41 W9        29.60R
MALTA          CLEAR     50  23  34 W12G17    29.59S
PLENTYWOOD       N/A     45  28  53 CALM      29.54R
POPLAR           N/A     43  21  42 W12       29.59R
SCOBEY           N/A     44  24  45 W5        29.58R
$$

MTZ028>42-056>058-152300-
SOUTHCENTRAL AND SOUTHEAST MONTANA

CITY           SKY/WX    TMP DP  RH WIND       PRES   REMARKS
BAKER          FAIR      41  27  57 W13       29.62F
BILLINGS       CLOUDY    46  16  30 SW21      29.71F
LIVINGSTON     FAIR      44  22  41 SW53G64   29.76F
MILES CITY     FAIR      48  20  32 W12       29.64F
BIG TIMBER     SUNNY     46  18  31 W21G28    29.78F
EKALAKA          N/A     44  18  35 SW8       29.67F
FORSYTH          N/A     52  18  25 W8        29.66S
LAUREL           N/A     46  16  29 SW8G15    29.74S
ROUNDUP          N/A     52  13  21 SW18      29.61
$$

REGIONAL REPORTS...DAKOTAS

CITY           SKY/WX    TMP DP  RH WIND       PRES   REMARKS
WILLISTON        N/A    N/A N/A N/A MISG      29.54F
MINOT          FAIR      41  26  55 SW6       29.49F
DICKINSON      FAIR      45  23  42 W16       29.55F
BEACH          FAIR      41  23  48 W12       29.62F
CROSBY         MOCLDY    41  27  56 W14       29.51S
TIOGA          FAIR      41  25  52 W12G18    29.52S
WATFORD CITY   FAIR      43  23  45 W9        29.55R
BISMARCK       FAIR      44  25  47 CALM      29.55F
GRAND FORKS    LGT SNOW  22  20  92 S12       29.67S FOG     WCI  10
FARGO          CLOUDY    28  24  85 SE12      29.66F WCI  18
BUFFALO SD       N/A     46  21  37 W17       29.58S
RAPID CITY     FAIR      51  18  27 E6        29.69F
$$

REGIONAL REPORTS...WYOMING/IDAHO/WASHINGTON

CITY           SKY/WX    TMP DP  RH WIND       PRES   REMARKS
GILLETTE       FAIR      49  18  29 SW14      29.73F
SHERIDAN       FAIR      44  26  49 CALM      29.70F
BUFFALO WY     FAIR      52  12  20 SE5       29.74F
CODY           FAIR      51  11  20 W24G35    29.82F
YELLOWSTONE LA   N/A     26  21  81 CALM      30.06F
IDAHO FALLS    FAIR      27  23  85 NE3       30.10F
SALMON         PTSUNNY   27  21  80 CALM      30.09F
BOISE          CLOUDY    28  22  78 NW3       30.19F
SPOKANE        SNOW      26  26 100 SW8       30.07R VSB 1/4 WCI  18
$$

REGIONAL REPORTS...ALBERTA

CITY           SKY/WX    TMP DP  RH WIND       PRES   REMARKS
EDMONTON       CLEAR     39  21  48 NW9G17    29.67R
CALGARY        MOCLDY    37  23  56 N10       29.71S WCI  30
LETHBRIDGE     LGT RAIN  39  32  75 NE8G17    29.74R
MEDICINE HAT   LGT RAIN  39  32  75 NW10      29.72R
$$

REGIONAL REPORTS...SASKATCHEWAN

CITY           SKY/WX    TMP DP  RH WIND       PRES   REMARKS
SWIFT CURRENT  LGT RAIN  37  34  87 NW10      29.59S WCI  30
REGINA         MOCLDY    37  32  81 W13       29.50R WCI  29
SASKATOON      MOCLDY    37  32  81 W14       29.50R WCI  29
$$




USA.gov is the U.S. government's official web portal to all federal, state and local government web resources and services.